Regional Weather Roundup
Issued by NWS

Home | Current Version | Previous Version | Text Only | Print | Product List | Glossary Off
Versions: 1 2 3 4 5 6 7 8 9 10 11 12 13 14 15 16 17 18 19 20 21 22 23 24 25 26 27 28 29 30 31 32 33 34 35 36 37 38 39 40 41 42 43 44 45 46 47 48 49 50

000
ASUS43 KFSD 210702
RWRSD

WEATHER ROUNDUP FOR SOUTH DAKOTA
NATIONAL WEATHER SERVICE SIOUX FALLS SD
200 AM CDT TUE APR 21 2015

NOTE: "FAIR" INDICATES FEW OR NO CLOUDS BELOW 12,000 FEET WITH NO
SIGNIFICANT WEATHER AND/OR OBSTRUCTIONS TO VISIBILITY.


SDZ001>005-009-010-012>017-210800-
NORTHWEST AND NORTH CENTRAL SOUTH DAKOTA

CITY           SKY/WX    TMP DP  RH WIND       PRES   REMARKS
FAITH            N/A     33  19  56 W9        29.81F WCI  25
MOBRIDGE       CLEAR     31  20  63 NW5       29.76S WCI  26
$$

SDZ012>016-024>037-041>051-057-063-072>074-210800-
SOUTHWEST AND SOUTH CENTRAL SOUTH DAKOTA

CITY           SKY/WX    TMP DP  RH WIND       PRES   REMARKS
RAPID CTY ARPT CLEAR     33  21  61 W5        29.88F WCI  29
PIERRE         CLEAR     34  22  61 W9        29.80F WCI  27
CUSTER         CLEAR     26  16  65 W6        29.88F WCI  19
ELLSWORTH AFB  CLEAR     31  22  67 W8        29.86F WCI  24
PHILIP         CLEAR     31  32 100 W8        29.86F WCI  23
PINE RIDGE     CLEAR     29  22  75 CALM      29.91F
WINNER         FAIR      39  19  44 W12       29.84S
$$

SDZ004>011-016>023-039-040-210800-
NORTHEAST SOUTH DAKOTA

CITY           SKY/WX    TMP DP  RH WIND       PRES   REMARKS
ABERDEEN       CLEAR     32  18  56 NW9       29.74R WCI  24
WATERTOWN      CLEAR     30  25  81 W9        29.68S WCI  22
BROOKINGS      CLEAR     28  25  86 W8        29.71S WCI  20
SISSETON         N/A     35  28  75 N15       29.66S WCI  25
$$

SDZ017-020-022-023-036>040-048>070-210800-
SOUTHEAST SOUTH DAKOTA

CITY           SKY/WX    TMP DP  RH WIND       PRES   REMARKS
SIOUX FALLS    NOT AVBL
HURON          CLEAR     28  14  55 W12       29.76S WCI  18
MITCHELL       CLEAR     31  11  43 W8        29.79S WCI  23
YANKTON        CLEAR     37  10  32 W13       29.79R
$$

ABBREVIATIONS USED IN REMARKS
   TC - TEMPERATURE IN CELSIUS
  WCI - WIND CHILL INDEX
   HX - HEAT INDEX
  VSB - VISIBILITY




USA.gov is the U.S. government's official web portal to all federal, state and local government web resources and services.